Location: Brunsbüttel
(52.3892°N, 10.6138°E)
Time: 05:52:03
(UTC+00:00)

Cosmos 1151 Rocket - Pass Details

Date: 19 May 2025
Orbit: 585 x 607 km, 82.5° (Epoch: 14 June)

Event Time Altitude Azimuth Distance (km) Brightness Sun altitude
Exits shadow 22:19:31 25° 127° (SE) 1,194 4.1 -16.7°
Maximum altitude 22:20:56 32° 91° (E) 1,024 4.0 -16.7°
Drops below altitude 10° 22:24:42 10° 28° (NNE) 1,922 6.3 -16.8°
Sets 22:27:04 0° 18° (NNE) 2,828 7.5 -16.9°
